"Period start","avg(HW err(1)/warn(2) (#))","avg(Visibility (m))","avg(Weather code (#))","avg(Precip intensity (mm/h))","min(HW err(1)/warn(2) (#))","max(HW err(1)/warn(2) (#))","std(HW err(1)/warn(2) (#))","med(HW err(1)/warn(2) (#))","min(Visibility (m))","max(Visibility (m))","std(Visibility (m))","med(Visibility (m))","min(Weather code (#))","max(Weather code (#))","std(Weather code (#))","med(Weather code (#))","min(Precip intensity (mm/h))","max(Precip intensity (mm/h))","std(Precip intensity (mm/h))","med(Precip intensity (mm/h))"
2014-03-18 00:00:00,2,31524,0,0.00,2,2,0,2,22906,44000,7168,29171,0,0,0,0,0.00,0.00,0.00,0.00
2014-03-18 00:10:00,2,34679,0,0.00,2,2,0,2,30908,39731,3392,32872,0,0,0,0,0.00,0.00,0.00,0.00
2014-03-18 00:20:00,2,31079,0,0.00,2,2,0,2,26006,37197,3751,30418,0,0,0,0,0.00,0.00,0.00,0.00
2014-03-18 00:30:00,2,36148,0,0.00,2,2,0,2,29942,43629,4318,35385,0,0,0,0,0.00,0.00,0.00,0.00
2014-03-18 00:40:00,2,35447,0,0.00,2,2,0,2,27776,41070,3822,35542,0,0,0,0,0.00,0.00,0.00,0.00
2014-03-18 00:50:00,2,39686,0,0.00,2,2,0,2,23667,50000,9613,40366,0,0,0,0,0.00,0.00,0.00,0.00
2014-03-18 01:00:00,2,35627,0,0.00,2,2,0,2,22074,40987,5683,38280,0,0,0,0,0.00,0.00,0.00,0.00
2014-03-18 01:10:00,2,25876,0,0.00,2,2,0,2,18676,37771,6380,23608,0,0,0,0,0.00,0.00,0.00,0.00
2014-03-18 01:20:00,2,36919,0,0.00,2,2,0,2,20650,48771,6778,37466,0,0,0,0,0.00,0.00,0.00,0.00
2014-03-18 01:30:00,2,28836,0,0.00,2,2,0,2,19912,41427,6779,28793,0,0,0,0,0.00,0.00,0.00,0.00
2014-03-18 01:40:00,2,32047,0,0.00,2,2,0,2,18548,49830,9597,30536,0,0,0,0,0.00,0.00,0.00,0.00
2014-03-18 01:50:00,2,31473,0,0.00,2,2,0,2,22509,43354,7410,30927,0,0,0,0,0.00,0.00,0.00,0.00
2014-03-18 02:00:00,2,26572,0,0.00,2,2,0,2,18649,31751,4546,27712,0,0,0,0,0.00,0.00,0.00,0.00
2014-03-18 02:10:00,2,30243,0,0.00,2,2,0,2,22546,39548,4938,28820,0,0,0,0,0.00,0.00,0.00,0.00
2014-03-18 02:20:00,2,32973,0,0.00,2,2,0,2,17773,45610,7999,32790,0,0,0,0,0.00,0.00,0.00,0.00
2014-03-18 02:30:00,2,27362,0,0.00,2,2,0,2,20890,34428,4407,27750,0,0,0,0,0.00,0.00,0.00,0.00
2014-03-18 02:40:00,2,27108,12,0.01,2,2,0,2,13378,39888,9100,24944,0,41,19,0,0.00,0.05,0.02,0.00
2014-03-18 02:50:00,2,21989,0,0.00,2,2,0,2,10940,36992,6796,22438,0,0,0,0,0.00,0.00,0.00,0.00
2014-03-18 03:00:00,2,22154,52,0.01,2,2,0,2,10025,34409,6350,22949,0,77,23,56,0.00,0.05,0.02,0.00
2014-03-18 03:10:00,2,25330,75,0.06,2,2,0,2,11626,39569,8577,22404,71,77,3,77,0.00,0.45,0.13,0.00
2014-03-18 03:20:00,2,23511,71,0.06,2,2,0,2,9004,37309,9255,21792,71,71,0,71,0.00,0.15,0.06,0.05
2014-03-18 03:30:00,2,20270,36,0.07,2,2,0,2,6492,37809,8313,18997,0,71,36,36,0.00,0.65,0.19,0.00
2014-03-18 03:40:00,2,13108,71,0.14,2,2,0,2,7847,21990,4224,12420,71,71,0,71,0.00,0.40,0.12,0.10
2014-03-18 03:50:00,2,11723,71,0.14,2,2,0,2,7095,17100,3593,11266,71,71,0,71,0.00,0.35,0.11,0.08
2014-03-18 04:00:00,2,15683,57,0.16,2,2,0,2,5395,21889,5082,14829,0,71,28,71,0.00,0.45,0.18,0.10
2014-03-18 04:10:00,2,17224,71,0.13,2,2,0,2,8311,23492,4637,17426,71,71,0,71,0.00,0.40,0.13,0.12
2014-03-18 04:20:00,2,19851,58,0.03,2,2,0,2,13111,31744,5017,19854,0,71,23,71,0.00,0.20,0.06,0.00
2014-03-18 04:30:00,2,28856,0,0.00,2,2,0,2,22517,37827,4659,28717,0,0,0,0,0.00,0.00,0.00,0.00
2014-03-18 04:40:00,2,28521,0,0.00,2,2,0,2,16859,38518,6440,28280,0,0,0,0,0.00,0.00,0.00,0.00
2014-03-18 04:50:00,2,29548,0,0.00,2,2,0,2,23121,36641,4754,28151,0,0,0,0,0.00,0.00,0.00,0.00
2014-03-18 05:00:00,2,23968,28,0.06,2,2,0,2,9498,30347,5785,25100,0,71,35,0,0.00,0.60,0.18,0.00
2014-03-18 05:10:00,2,24695,59,0.01,2,2,0,2,16252,34919,7209,24414,41,71,15,71,0.00,0.05,0.02,0.00
2014-03-18 05:20:00,2,24123,31,0.00,2,2,0,2,17775,36297,6538,21504,0,78,38,0,0.00,0.00,0.00,0.00
2014-03-18 05:30:00,2,35687,0,0.00,2,2,0,2,24279,50000,8185,34852,0,0,0,0,0.00,0.00,0.00,0.00
2014-03-18 05:40:00,2,27434,0,0.00,2,2,0,2,16893,42133,7319,26152,0,0,0,0,0.00,0.00,0.00,0.00
2014-03-18 05:50:00,2,33305,0,0.00,2,2,0,2,23354,46451,6766,31768,0,0,0,0,0.00,0.00,0.00,0.00
2014-03-18 06:00:00,2,41549,0,0.00,2,2,0,2,26552,50000,8894,45538,0,0,0,0,0.00,0.00,0.00,0.00
2014-03-18 06:10:00,2,25341,0,0.00,2,2,0,2,20374,35965,4924,23996,0,0,0,0,0.00,0.00,0.00,0.00
2014-03-18 06:20:00,2,33540,0,0.00,2,2,0,2,23986,46810,6206,32526,0,0,0,0,0.00,0.00,0.00,0.00
2014-03-18 06:30:00,2,32738,0,0.00,2,2,0,2,22172,43611,5403,32559,0,0,0,0,0.00,0.00,0.00,0.00
2014-03-18 06:40:00,2,31645,0,0.00,2,2,0,2,21451,44274,6773,30901,0,0,0,0,0.00,0.00,0.00,0.00
2014-03-18 06:50:00,2,34326,0,0.00,2,2,0,2,22590,43091,5462,35662,0,0,0,0,0.00,0.00,0.00,0.00
2014-03-18 07:00:00,2,35039,0,0.00,2,2,0,2,27721,45129,5972,35588,0,0,0,0,0.00,0.00,0.00,0.00
2014-03-18 07:10:00,2,29900,0,0.00,2,2,0,2,22591,41783,5128,29722,0,0,0,0,0.00,0.00,0.00,0.00
2014-03-18 07:20:00,2,33758,0,0.00,2,2,0,2,27656,42584,5164,32418,0,0,0,0,0.00,0.00,0.00,0.00
2014-03-18 07:30:00,2,34847,0,0.00,2,2,0,2,27275,47929,6180,33644,0,0,0,0,0.00,0.00,0.00,0.00
2014-03-18 07:40:00,2,38609,0,0.00,2,2,0,2,31200,50000,4970,38826,0,0,0,0,0.00,0.00,0.00,0.00
2014-03-18 07:50:00,2,35171,0,0.00,2,2,0,2,27315,38629,2948,35224,0,0,0,0,0.00,0.00,0.00,0.00
2014-03-18 08:00:00,2,41136,0,0.00,2,2,0,2,25561,49906,6954,42286,0,0,0,0,0.00,0.00,0.00,0.00
2014-03-18 08:10:00,2,36980,0,0.00,2,2,0,2,30207,48959,5720,37205,0,0,0,0,0.00,0.00,0.00,0.00
2014-03-18 08:20:00,2,38246,0,0.00,2,2,0,2,27814,44416,5341,39644,0,0,0,0,0.00,0.00,0.00,0.00
2014-03-18 08:30:00,2,43005,0,0.00,2,2,0,2,32912,50000,5277,42826,0,0,0,0,0.00,0.00,0.00,0.00
2014-03-18 08:40:00,2,40126,0,0.00,2,2,0,2,32180,44843,3936,41408,0,0,0,0,0.00,0.00,0.00,0.00
2014-03-18 08:50:00,2,43067,0,0.00,2,2,0,2,35445,50000,4561,43580,0,0,0,0,0.00,0.00,0.00,0.00
2014-03-18 09:00:00,2,44435,0,0.00,2,2,0,2,41742,47357,1595,44422,0,0,0,0,0.00,0.00,0.00,0.00
2014-03-18 09:10:00,2,40755,0,0.00,2,2,0,2,35359,44814,2910,41070,0,0,0,0,0.00,0.00,0.00,0.00
2014-03-18 09:20:00,2,39922,0,0.00,2,2,0,2,34982,45662,3745,38572,0,0,0,0,0.00,0.00,0.00,0.00
2014-03-18 09:30:00,2,41778,0,0.00,2,2,0,2,36065,46793,2775,41658,0,0,0,0,0.00,0.00,0.00,0.00
2014-03-18 09:40:00,2,37829,0,0.00,2,2,0,2,31858,43256,3991,37412,0,0,0,0,0.00,0.00,0.00,0.00
2014-03-18 09:50:00,2,40125,0,0.00,2,2,0,2,35425,43908,2831,40456,0,0,0,0,0.00,0.00,0.00,0.00
2014-03-18 10:00:00,2,44895,0,0.00,2,2,0,2,40219,48681,2880,45568,0,0,0,0,0.00,0.00,0.00,0.00
2014-03-18 10:10:00,2,42004,0,0.00,2,2,0,2,38474,43633,1554,42712,0,0,0,0,0.00,0.00,0.00,0.00
2014-03-18 10:20:00,2,42266,0,0.00,2,2,0,2,37124,45749,2458,42422,0,0,0,0,0.00,0.00,0.00,0.00
2014-03-18 10:30:00,2,39652,0,0.00,2,2,0,2,36880,42905,2262,39120,0,0,0,0,0.00,0.00,0.00,0.00
2014-03-18 10:40:00,2,40048,0,0.00,2,2,0,2,34503,44485,3228,40833,0,0,0,0,0.00,0.00,0.00,0.00
2014-03-18 10:50:00,2,43434,0,0.00,2,2,0,2,38364,50000,4444,41892,0,0,0,0,0.00,0.00,0.00,0.00
2014-03-18 11:00:00,2,45332,0,0.00,2,2,0,2,39291,50000,4181,46768,0,0,0,0,0.00,0.00,0.00,0.00
2014-03-18 11:10:00,2,40881,0,0.00,2,2,0,2,35395,50000,4590,39426,0,0,0,0,0.00,0.00,0.00,0.00
2014-03-18 11:20:00,2,44284,0,0.00,2,2,0,2,40928,47096,2158,44782,0,0,0,0,0.00,0.00,0.00,0.00
2014-03-18 11:30:00,2,41565,0,0.00,2,2,0,2,35964,46620,2842,42133,0,0,0,0,0.00,0.00,0.00,0.00
2014-03-18 11:40:00,2,43434,0,0.00,2,2,0,2,40226,50000,3146,42244,0,0,0,0,0.00,0.00,0.00,0.00
2014-03-18 11:50:00,2,39349,0,0.00,2,2,0,2,34409,44038,3484,39805,0,0,0,0,0.00,0.00,0.00,0.00
2014-03-18 12:00:00,2,42144,0,0.00,2,2,0,2,37248,46955,2900,43367,0,0,0,0,0.00,0.00,0.00,0.00
2014-03-18 12:10:00,2,41501,0,0.00,2,2,0,2,35425,45151,3224,42220,0,0,0,0,0.00,0.00,0.00,0.00
2014-03-18 12:20:00,2,42334,0,0.00,2,2,0,2,36734,45885,2452,42596,0,0,0,0,0.00,0.00,0.00,0.00
2014-03-18 12:30:00,2,42051,0,0.00,2,2,0,2,38877,44853,1963,41786,0,0,0,0,0.00,0.00,0.00,0.00
2014-03-18 12:40:00,2,39584,0,0.00,2,2,0,2,34049,43136,2475,39502,0,0,0,0,0.00,0.00,0.00,0.00
2014-03-18 12:50:00,2,40856,0,0.00,2,2,0,2,35573,43537,2978,42548,0,0,0,0,0.00,0.00,0.00,0.00
2014-03-18 13:00:00,2,42630,0,0.00,2,2,0,2,37599,49061,3725,41936,0,0,0,0,0.00,0.00,0.00,0.00
2014-03-18 13:10:00,2,43610,0,0.00,2,2,0,2,36332,48427,4406,44956,0,0,0,0,0.00,0.00,0.00,0.00
2014-03-18 13:20:00,2,41155,0,0.00,2,2,0,2,38175,45851,2759,39955,0,0,0,0,0.00,0.00,0.00,0.00
2014-03-18 13:30:00,2,39020,0,0.00,2,2,0,2,34777,43501,2939,39557,0,0,0,0,0.00,0.00,0.00,0.00
2014-03-18 13:40:00,2,45931,0,0.00,2,2,0,2,39626,50000,3447,46560,0,0,0,0,0.00,0.00,0.00,0.00
2014-03-18 13:50:00,2,45203,0,0.00,2,2,0,2,42786,49408,2068,44755,0,0,0,0,0.00,0.00,0.00,0.00
2014-03-18 14:00:00,2,40143,0,0.00,2,2,0,2,30261,47090,4954,41550,0,0,0,0,0.00,0.00,0.00,0.00
2014-03-18 14:10:00,2,41433,0,0.00,2,2,0,2,34605,49005,4111,40966,0,0,0,0,0.00,0.00,0.00,0.00
2014-03-18 14:20:00,2,39659,0,0.00,2,2,0,2,34335,46501,3093,39125,0,0,0,0,0.00,0.00,0.00,0.00
2014-03-18 14:30:00,2,43426,0,0.00,2,2,0,2,36271,50000,4032,42614,0,0,0,0,0.00,0.00,0.00,0.00
2014-03-18 14:40:00,2,39005,0,0.00,2,2,0,2,33475,45418,3326,38446,0,0,0,0,0.00,0.00,0.00,0.00
2014-03-18 14:50:00,2,44535,0,0.00,2,2,0,2,40391,50000,2944,44122,0,0,0,0,0.00,0.00,0.00,0.00
2014-03-18 15:00:00,2,46430,0,0.00,2,2,0,2,42597,50000,2449,46137,0,0,0,0,0.00,0.00,0.00,0.00
2014-03-18 15:10:00,2,43276,0,0.00,2,2,0,2,34132,49645,4563,43044,0,0,0,0,0.00,0.00,0.00,0.00
2014-03-18 15:20:00,2,44395,0,0.00,2,2,0,2,40065,49171,2804,44158,0,0,0,0,0.00,0.00,0.00,0.00
2014-03-18 15:30:00,2,42389,0,0.00,2,2,0,2,33878,50000,4154,42577,0,0,0,0,0.00,0.00,0.00,0.00
2014-03-18 15:40:00,2,39504,0,0.00,2,2,0,2,33421,46404,4323,38820,0,0,0,0,0.00,0.00,0.00,0.00
2014-03-18 15:50:00,2,40680,0,0.00,2,2,0,2,36162,45071,2874,40690,0,0,0,0,0.00,0.00,0.00,0.00
2014-03-18 16:00:00,2,43262,0,0.00,2,2,0,2,37012,48189,3365,42516,0,0,0,0,0.00,0.00,0.00,0.00
2014-03-18 16:10:00,2,42311,0,0.00,2,2,0,2,38740,46430,2649,41717,0,0,0,0,0.00,0.00,0.00,0.00
2014-03-18 16:20:00,2,45554,0,0.00,2,2,0,2,41881,49409,2577,45801,0,0,0,0,0.00,0.00,0.00,0.00
2014-03-18 16:30:00,2,42409,0,0.00,2,2,0,2,31672,48776,5896,44954,0,0,0,0,0.00,0.00,0.00,0.00
2014-03-18 16:40:00,2,40661,0,0.00,2,2,0,2,33330,46944,4298,41435,0,0,0,0,0.00,0.00,0.00,0.00
2014-03-18 16:50:00,2,29220,0,0.00,2,2,0,2,21700,37011,5173,27902,0,0,0,0,0.00,0.00,0.00,0.00
2014-03-18 17:00:00,2,27324,61,0.00,2,2,0,2,19223,39068,5452,26806,0,78,31,78,0.00,0.00,0.00,0.00
2014-03-18 17:10:00,2,35380,31,0.00,2,2,0,2,29824,44956,4361,35000,0,78,38,0,0.00,0.00,0.00,0.00
2014-03-18 17:20:00,2,43284,0,0.00,2,2,0,2,39680,45758,2306,44414,0,0,0,0,0.00,0.00,0.00,0.00
2014-03-18 17:30:00,2,39895,0,0.00,2,2,0,2,33987,45433,3443,40184,0,0,0,0,0.00,0.00,0.00,0.00
2014-03-18 17:40:00,2,34904,0,0.00,2,2,0,2,31471,40023,3038,34212,0,0,0,0,0.00,0.00,0.00,0.00
2014-03-18 17:50:00,2,22776,57,0.01,2,2,0,2,18196,28032,3613,21498,0,71,28,71,0.00,0.05,0.02,0.00
2014-03-18 18:00:00,2,23638,76,0.00,2,2,0,2,21238,25920,1500,23544,71,78,3,78,0.00,0.00,0.00,0.00
2014-03-18 18:10:00,2,26068,78,0.00,2,2,0,2,21309,30322,3077,26546,77,78,0,78,0.00,0.00,0.00,0.00
2014-03-18 18:20:00,2,18595,78,0.01,2,2,0,2,15625,24221,2747,17805,77,78,0,78,0.00,0.05,0.02,0.00
2014-03-18 18:30:00,2,10954,74,0.21,2,2,0,2,8980,13888,1500,10739,71,78,3,74,0.05,0.40,0.14,0.20
2014-03-18 18:40:00,2,11129,71,0.27,2,2,0,2,7088,14037,1824,11037,71,71,0,71,0.05,0.75,0.21,0.17
2014-03-18 18:50:00,2,10050,71,0.18,2,2,0,2,4636,16782,3450,10581,71,71,0,71,0.00,0.55,0.16,0.15
2014-03-18 19:00:00,2,11059,71,0.24,2,2,0,2,4805,16382,3300,10470,71,71,0,71,0.05,0.80,0.21,0.15
2014-03-18 19:10:00,2,14908,71,0.08,2,2,0,2,12857,16771,1208,14956,71,71,0,71,0.00,0.20,0.06,0.05
2014-03-18 19:20:00,2,13785,71,0.11,2,2,0,2,7690,18514,2993,14040,71,71,0,71,0.00,0.35,0.11,0.08
2014-03-18 19:30:00,2,15512,71,0.09,2,2,0,2,10624,22186,3768,15004,71,71,0,71,0.00,0.35,0.12,0.00
2014-03-18 19:40:00,2,26248,77,0.00,2,2,0,2,22728,31104,2092,25902,71,78,3,78,0.00,0.00,0.00,0.00
2014-03-18 19:50:00,2,29116,16,0.00,2,2,0,2,26869,30861,1396,28956,0,78,31,0,0.00,0.00,0.00,0.00
2014-03-18 20:00:00,2,31451,0,0.00,2,2,0,2,28472,34158,1908,31504,0,0,0,0,0.00,0.00,0.00,0.00
2014-03-18 20:10:00,2,37546,0,0.00,2,2,0,2,28962,43074,4232,37926,0,0,0,0,0.00,0.00,0.00,0.00
2014-03-18 20:20:00,2,37081,0,0.00,2,2,0,2,32259,39742,2299,37630,0,0,0,0,0.00,0.00,0.00,0.00
2014-03-18 20:30:00,2,35376,0,0.00,2,2,0,2,30887,42338,3257,34792,0,0,0,0,0.00,0.00,0.00,0.00
2014-03-18 20:40:00,2,44238,0,0.00,2,2,0,2,39519,49782,3036,43503,0,0,0,0,0.00,0.00,0.00,0.00
2014-03-18 20:50:00,2,41356,0,0.00,2,2,0,2,35102,46120,3696,42172,0,0,0,0,0.00,0.00,0.00,0.00
2014-03-18 21:00:00,2,37838,0,0.00,2,2,0,2,30637,47639,4769,36942,0,0,0,0,0.00,0.00,0.00,0.00
2014-03-18 21:10:00,2,40068,0,0.00,2,2,0,2,34714,44073,2669,40376,0,0,0,0,0.00,0.00,0.00,0.00
2014-03-18 21:20:00,2,40177,0,0.00,2,2,0,2,33251,44200,3665,41893,0,0,0,0,0.00,0.00,0.00,0.00
2014-03-18 21:30:00,2,40468,0,0.00,2,2,0,2,34080,45494,3451,40882,0,0,0,0,0.00,0.00,0.00,0.00
2014-03-18 21:40:00,2,44141,0,0.00,2,2,0,2,31947,50000,5263,45189,0,0,0,0,0.00,0.00,0.00,0.00
2014-03-18 21:50:00,2,38220,0,0.00,2,2,0,2,23417,50000,7083,39649,0,0,0,0,0.00,0.00,0.00,0.00
2014-03-18 22:00:00,2,34714,0,0.00,2,2,0,2,24105,45250,6227,34764,0,0,0,0,0.00,0.00,0.00,0.00
2014-03-18 22:10:00,2,39195,0,0.00,2,2,0,2,26408,48332,7116,40240,0,0,0,0,0.00,0.00,0.00,0.00
2014-03-18 22:20:00,2,34864,0,0.00,2,2,0,2,28244,47580,6104,32900,0,0,0,0,0.00,0.00,0.00,0.00
2014-03-18 22:30:00,2,34810,0,0.00,2,2,0,2,25885,46442,7624,30443,0,0,0,0,0.00,0.00,0.00,0.00
2014-03-18 22:40:00,2,40742,0,0.00,2,2,0,2,28808,50000,7366,38575,0,0,0,0,0.00,0.00,0.00,0.00
2014-03-18 22:50:00,2,34857,0,0.00,2,2,0,2,29843,43748,4225,33164,0,0,0,0,0.00,0.00,0.00,0.00
2014-03-18 23:00:00,2,34086,0,0.00,2,2,0,2,28944,39721,2933,33258,0,0,0,0,0.00,0.00,0.00,0.00
2014-03-18 23:10:00,2,38827,0,0.00,2,2,0,2,32476,50000,5472,37249,0,0,0,0,0.00,0.00,0.00,0.00
2014-03-18 23:20:00,2,34661,0,0.00,2,2,0,2,27038,43567,4102,35170,0,0,0,0,0.00,0.00,0.00,0.00
2014-03-18 23:30:00,2,39752,0,0.00,2,2,0,2,30088,50000,6571,38448,0,0,0,0,0.00,0.00,0.00,0.00
2014-03-18 23:40:00,2,38524,0,0.00,2,2,0,2,29546,50000,6609,37736,0,0,0,0,0.00,0.00,0.00,0.00
2014-03-18 23:50:00,2,36968,0,0.00,2,2,0,2,29525,45130,4815,37226,0,0,0,0,0.00,0.00,0.00,0.00
